www.pogodaiklimat.ru

Погода и климат >> Архив погоды >> Россия >> Краснодарский край >> Псебай


ПОГОДА в Псебае

  • Прогноз погоды в Псебае
  • Монитор погоды в Псебае

АРХИВ ПОГОДЫ в Псебае

Время (UTC), дата Ветер
(напр.,м/с)
 
Видим.   Явления Облачность Т
(С)
Тd
(С)
f
(%)
Тe
(С)
Тes
(С)
Комфортность P
(гПа)
Po
(гПа)
Тmin
(С)
Tmax
(С)
R
(мм)
R24
(мм)
S
(см)
21 16.05 ЮЗ 2 10 км 3/0
[Cs]
+13.1 +10.4 84 +12 +12 1012.8 941.2
00 17.05 Ю 2 10 км ясно +11.1 +8.9 86 +10 +10 1012.7 940.6
03 17.05 ЮЗ 3 20 км 3/0
[Ci]
+13.2 +8.9 75 +12 +13 1012.6 941.0 +10.3
06 17.05 штиль 0 20 км 10/0
[Ci]
+24.0 +10.3 42 +25 +36 комфорт 1010.0 941.1
09 17.05 С 4 20 км 10/0
[Ci]
+26.4 +11.2 39 +28 +38 жарко 1009.3 941.0
12 17.05 С 4 20 км 8/0
[Ci fib]
+27.6 +12.2 38 +29 +36 жарко 1008.5 940.5
15 17.05 С 1 20 км 4/4 1000 м
[Sc]
+27.0 +12.4 40 +28 +30 жарко 1007.6 939.5 +27.6
18 17.05 Ю 1 10 км ясно +17.7 +14.2 80 +19 +19 1009.5 939.3
21 17.05 штиль 0 10 км ясно +14.4 +11.8 84 +14 +14 1009.7 938.6
00 18.05 Ю 1 10 км ясно +13.1 +10.5 84 +13 +13 1009.8 938.4
03 18.05 Ю 2 20 км 10/0
[Ci]
+13.6 +10.2 80 +13 +14 1009.3 938.1 +11.5
06 18.05 Ю 2 20 км 10/3 1000 м
[Cb calv Ci fib]
+23.0 +9.1 41 +24 +30 комфорт 1006.3 937.4
09 18.05 С 5 20 км 10/4 1000 м
[Cb calv Ac trans Ci fib]
+27.0 +13.6 44 +29 +32 жарко 1004.0 936.2
12 18.05 С 4 20 км 10/3 1000 м
[Cb calv Ci fib]
+28.2 +10.9 34 +29 +34 жарко 1003.3 935.8
15 18.05 С 4 20 км 10/0
[Ci fib]
+25.3 +13.6 48 +27 +28 жарко 1003.7 935.6 +28.7
18 18.05 Ю 2 10 км зарница 8/3 1000 м
[Cb calv Ci fib]
+17.0 +13.6 80 +17 +17 1006.0 935.9
21 18.05 Ю 1 10 км 10/0
[Ci fib]
+15.7 +13.3 86 +16 +16 1006.1 935.7
00 19.05 ЮЗ 3 10 км 10/4 1000 м
[Cb calv Ci]
+15.2 +12.8 86 +14 +14 1005.7 935.2
03 19.05 ЮЗ 2 20 км 10/8 1000 м
[Cb calv Ci]
+16.0 +12.3 79 +16 +16 1006.3 935.9 +13.6
06 19.05 штиль 0 20 км {гроза, ливн. осадки} 4/1 1000 м
[Cu med, cong Ci]
+23.0 +12.4 51 +26 +38 жарко 1005.7 936.9
09 19.05 С 5
{10}
20 км 9/9 1000 м
[Cb calv]
+22.4 +15.3 64 +26 +27 жарко 1007.7 938.7
12 19.05 Ю 2 10 км гроза, ливневой дождь 10/10 300 м
[Cb cap]
+17.1 +15.1 88 +17 +17 1011.0 940.6
15 19.05 С 2 20 км {гроза, ливн. осадки} 10/9 1000 м
[Cb calv Ci]
+20.0 +14.7 72 +23 +23 комфорт 1010.5 940.8 +24.4 3
18 19.05 З 2 10 км {гроза, ливн. осадки} 10/6 1000 м
[Cb calv Ci fib]
+16.7 +15.0 90 +17 +17 1012.2 941.6
21 19.05 штиль 0 н/о н/о +15.8 +14.5 92 +16 +16 1012.0 941.2
00 20.05 ЮВ 1 10 км слаб. ливневой дождь 10/10 300 м
[Cb cap]
+15.2 +13.9 92 +16 +16 1013.1 942.1
03 20.05 штиль 0 500 м слаб. ливневой дождь, в посл. час гроза ?/? +15.2 +14.0 93 +15 +15 1013.4 942.3 +15.0 4
06 20.05 ЮЗ 3 10 км гроза, ливневой дождь 10/10 300 м
[Cb cap]
+13.2 +11.8 91 +12 +12 1015.3 943.6 +13.2
09 20.05 Ю 3 10 км гроза, ливневой дождь 10/10 300 м
[Cb cap]
+13.5 +12.3 92 +12 +12 1017.4 945.6
12 20.05 ЮЗ 1 10 км {гроза, ливн. осадки} 10/10 300 м
[Cb calv]
+15.3 +13.5 89 +16 +16 1017.4 946.1
15 20.05 СЗ 1 20 км 10/4 1000 м
[Cb calv Ci fib]
+16.2 +13.6 85 +17 +18 1016.2 945.2 +16.6 38
18 20.05 Ю 1 10 км ясно +12.7 +11.2 91 +13 +13 1017.5 945.5
21 20.05 ЮЗ 2 10 км ясно +10.2 +8.9 92 +9 +9 1018.7 945.9
00 21.05 ЮЗ 2 10 км ясно +8.5 +6.8 89 +7 +7 1018.9 945.7
03 21.05 Ю 4 20 км ясно +12.1 +8.2 77 +10 +11 1017.5 945.3 +7.8
06 21.05 СВ 2 20 км ясно +18.9 +10.7 59 +20 +31 1015.8 945.3
09 21.05 С 1 20 км 1/1 600 м
[Cu hum]
+22.0 +11.6 52 +24 +44 комфорт 1015.3 945.6
12 21.05 С 4 20 км 3/3 600 м
[Cu hum]
+23.5 +11.9 48 +25 +31 комфорт 1014.1 944.8
15 21.05 СЗ 1 20 км гроза без осадков 10/6 600 м
[Cb cap Ci]
+21.5 +12.4 56 +24 +24 комфорт 1014.5 944.8 +23.8
18 21.05 Ю 5 10 км {гроза} 10/4 600 м
[Sc Ci fib]
+15.8 +10.8 72 +15 +15 1015.9 944.7
21 21.05 ЮЗ 2 10 км 10/6 600 м
[Sc Ci]
+13.3 +10.7 84 +13 +13 1015.8 944.0
00 22.05 ЮЗ 1 10 км 10/8 600 м
[Cb calv Ci sp]
+11.6 +9.7 88 +11 +11 1015.5 943.3
03 22.05 ЮВ 2 20 км 10/4 1000 м
[Sc Ac trans Ci]
+12.7 +10.3 85 +12 +12 1014.9 943.1 +10.9
06 22.05 З 1 20 км 10/10 1000 м
[Cb calv]
+16.6 +11.8 73 +17 +17 1013.9 943.1
09 22.05 СВ 1 20 км гроза, ливневой дождь 10/10 600 м
[Cb cap]
+14.9 +13.3 90 +15 +15 1014.6 943.4
12 22.05 С 4 20 км {гроза, ливн. осадки} 8/6 600 м
[Cb calv Ci]
+18.9 +13.2 69 +20 +23 1013.4 943.2
15 22.05 С 3 20 км 4/4 1000 м
[Cb calv]
+19.1 +13.7 71 +21 +22 комфорт 1013.1 942.9 +20.0 7
18 22.05 штиль 0 10 км 3/3 1000 м
[Cb calv]
+13.8 +11.8 88 +13 +13 1015.3 943.7
21 22.05 ЮЗ 1 10 км ясно +10.4 +8.0 85 +10 +10 1015.7 943.2
00 23.05 ЮЗ 3 10 км 3/0
[Ci]
+8.0 +6.0 87 +5 +5 1016.1 943.0
03 23.05 ЮЗ 4 20 км 4/1 1000 м
[Sc diur, vesp Ci]
+7.9 +6.7 92 +4 +5 1015.8 942.7 +6.8
06 23.05 СЗ 1 20 км 8/5 1000 м
[Cb calv Ci fib]
+17.1 +8.9 58 +18 +24 1012.6 941.9
09 23.05 С 5 20 км 9/8 1000 м
[Cb calv Ci fib]
+20.9 +9.6 48 +23 +24 комфорт 1010.8 941.2
12 23.05 С 4 20 км 10/8 1000 м
[Cb calv Ci fib]
+20.0 +7.9 46 +21 +22 комфорт 1010.6 940.7
15 23.05 СВ 2 20 км 10/8 1000 м
[Cb calv Ci fib]
+19.4 +9.1 51 +21 +21 комфорт 1010.5 940.5 +22.3
18 23.05 Ю 2 10 км 10/5 1000 м
[Cb calv Ac trans Ci fib]
+12.2 +9.4 83 +11 +11 1013.8 941.8

 

Местоположение метеостанции Псебай (Краснодарский край, Россия): широта 44.13 долгота 40.78 высота над уровнем моря 621 м.

В архиве по умолчанию представлена погода в Псебае за последнюю неделю. Архивные данные за месяц целиком и за предыдущие месяцы, начиная с января 2011 года, Вы можете получить, выбрав интересующий диапазон дат из раскрывающегося списка и нажав кнопку "Ввод!".


*Определитесь, кто Вы:
робот инопланетянин человек

Внимание! Время в таблицах - всемирное. Для получения местного времени необходимо прибавить поправку, которая равна 3 ч.

Смотрите также архив погоды в соседних городах и на ближайших метеорологических станциях:

Погода в Гузерипле (Адыгея, Россия) (54 км)
Погода в Лабинске (Краснодарский край, Россия) (60 км)
Погода в Даховской (Адыгея, Россия) (60 км)
Погода на Кордоне Лаура (Краснодарский край, Россия) (61 км)
Погода в Отрадной (Краснодарский край, Россия) (63 км)
Погода в Шунтуке (Адыгея, Россия) (65 км)
Погода в Горная Карусель 1500 (Краснодарский край, Россия) (66 км)
Погода в Горная Карусель 1000 (Краснодарский край, Россия) (66 км)
Погода в Красной Поляне (Краснодарский край, Россия) (68 км)
Погода в Зеленчукской (Карачаево-Черкессия, Россия) (70 км)

Пояснения к столбцам:

Ветер - указаны скорость ветра в м/с - средняя за 10 мин, порывы в срок и между сроками (в фигурных скобках) и направление, откуда дует ветер: С - северный, СВ - северо-восточный, В - восточный, ЮВ - юго-восточный, Ю - южный, ЮЗ - юго-западный, З - западный, СЗ - северо-западный.
Видимость - горизонтальная дальность видимости в метрах или километрах. При видимости от 1 до 10 км при отсутствии осадков обычно наблюдается дымка, при ухудшении видимости до 1 км и менее - туман. В сухую погоду видимость может ухудшаться дымом, пылью или мглою.
Явления - указаны атмосферные явления, наблюдавшиеся в срок или в последний час перед сроком; фигурными скобками обозначены явления, наблюдавшиеся между сроками (за 1-3 часа до срока); квадратными скобками обозначены град или гололедные отложения с указанием их диаметра в мм.
Облачность - указаны через наклонную черту общая и нижняя облачность в баллах и высота нижней границы облаков в метрах; квадратными скобками обозначены формы облаков: Ci - перистые, Cs - перисто-слоистые, Cc - перисто-кучевые, Ac - высококучевые, As - высокослоистые, Sc - слоисто-кучевые, Ns - слоисто-дождевые, Cu - кучевые, Cb - кучево-дождевые. Подробнее классификацию облаков см. в Атласе облаков (PDF).
T - Температура воздуха - температура, измеренная на высоте 2 м над землей.
Td - Температура точки росы - температура, при понижении до которой содержащийся в воздухе водяной пар достигнет насыщения.
f - Относительная влажность воздуха - влажноcть воздуха, измеренная на высоте 2 м над землей.
Te - Эффективная температура - температура, которую ощущает одетый по сезону человек в тени. Характеристика душности погоды. При расчете учитывается влияние влажности воздуха и скорости ветра на теплоощущения человека.
Tes - Эффективная температура на солнце - температура, которую ощущает человек, с поправкой на солнечный нагрев. Характеристика знойности погоды. Зависит от высоты солнца над горизонтом, облачности и скорости ветра. Ночью, в пасмурную погоду, а также при ветре 12 м/с и более поправка равна нулю.
P - Атмосферное давление - приведенное к уровню моря атмосферное давление.
Po - Атмосферное давление - измеренное на уровне метеостанции атмосферное давление.
Tmin - Минимальная температура - минимум температуры воздуха на высоте 2 м над землей.
Tmax - Максимальная температура - максимум температуры воздуха на высоте 2 м над землей.
R - Количество осадков - Количество выпавших осадков за период времени, мм. При наведении курсора мыши на число - период времени, за который выпало указанное количество осадков.
R24 - Количество осадков - Количество выпавших осадков за 24 часа, мм.
S - Снежный покров - Высота снежного покрова, см. При наведении курсора мыши на число - состояние снежного покрова и степень покрытия местности в баллах.